Погода в Чамбараке

Армения     40°35′44″N   45°21′23″E
темп.,
°C
ветер,
м/с
пор.,
м/с
влажн.,
%
обл.,
%
осадки,
мм/ч
давл.,
гПа
погр.,
м
9 мая, вс
вс901:00+10юв117511 0.1 101572
04:00+10ююв1175100 0.1 101495
07:00+10ююз11674 0.0 1014124
10:00+13ю12575 0.0 1012378
13:00+16юз35495 0.0 1009677
16:00+17юз7105099 0.0 10061000
19:00+13в227387 0.3 100884
22:00+7ссв5690100 5.7 1013323
10 мая, пн
пн1001:00+8ююв4485100 2.3 1011374
04:00+4ссз6698100 7.5 1013338
07:00+1с4597100 4.5 1017390
10:00+2ссз678878 4.9 1018569
13:00+5с566980 0.1 1016677
16:00+5ссв547946 0.1 1016405
19:00+3св448488 0.0 1018429
22:00+2св448778 0.1 1020344
11 мая, вт
вт1101:00+1св4387100 0.0 1020313
04:000св3388100 0.1 1019274
07:00+1св339095 0.0 1019242
10:00+3св328648 0.0 1017316
13:00+8ссз226927 0.0 1014659
16:00+10ссв53704 0.0 1012444
19:00+7ссв55814 0.0 1014206
22:00+7ссв22814 0.1 1015117
12 мая, ср
ср1201:00+8в11770 0.0 1015111
04:00+8юв12760 0.0 1015116
07:00+9ю12710 0.0 1015125
10:00+11ю12570 0.0 1015376
13:00+14сз12430 0.0 1014831
16:00+16зсз44392 0.0 1013909
19:00+15ссв33555 0.1 101432
22:00+12св226618 0.1 101755
13 мая, чт
чт1301:00+11юв11643 0.0 101761
04:00+11юв33610 0.0 1017147
07:00+11ююв33601 0.0 1017168
10:00+14ююв22460 0.0 1017398
13:00+16всв01363 0.0 1016897
16:00+18сз33345 0.0 10141346
19:00+16св446411 0.3 101590
22:00+12в117313 0.4 101820